RYR562Q LGKR-EPPO

Flight info

Callsign RYR562Q
Flight time 1h 53m
Altitude 32000
Route OLGAT DCT CRAYE/N0451F360 DCT GISAM DCT NETKO DCT GUBOK DCT VEBAL/N0444F350 DCT XOMBA DCT BILNA/N0446F360 DCT SOPAV DCT REGLI DCT EPOPA L617 ARMEX DCT NILPU
Aircraft B738/M-SDE2E3FGHIRWXY/LB1

Departure

Time 2026-05-07 10:07
Airport Corfu Ioannis Kapodistrias International Airport (LGKR)

Arrival

Time 2026-05-07 12:00
Airport Poznań-Ławica Airport (EPPO)
Time Latitude Longitude Altitude Speed Heading
2026-05-07 09:49 39.60705 19.91347 17 ft 0 kts 79°
2026-05-07 09:59 39.60704 19.91343 17 ft 3 kts 79°
2026-05-07 09:59 39.60700 19.91310 19 ft 4 kts 79°
2026-05-07 09:59 39.60696 19.91275 21 ft 4 kts 88°
2026-05-07 10:00 39.60698 19.91241 17 ft 4 kts 107°
2026-05-07 10:00 39.60709 19.91214 17 ft 4 kts 159°
2026-05-07 10:00 39.60714 19.91212 19 ft 1 kts 168°
2026-05-07 10:02 39.60712 19.91212 19 ft 1 kts 168°
2026-05-07 10:02 39.60670 19.91224 17 ft 11 kts 168°
2026-05-07 10:02 39.60579 19.91199 17 ft 15 kts 212°
2026-05-07 10:02 39.60488 19.91142 18 ft 15 kts 184°
2026-05-07 10:03 39.60344 19.91175 20 ft 29 kts 168°
2026-05-07 10:03 39.60152 19.91226 21 ft 27 kts 169°
2026-05-07 10:03 39.59972 19.91273 22 ft 26 kts 168°
2026-05-07 10:03 39.59803 19.91317 21 ft 24 kts 168°
2026-05-07 10:04 39.59644 19.91359 18 ft 23 kts 168°
2026-05-07 10:04 39.59489 19.91400 17 ft 24 kts 169°
2026-05-07 10:04 39.59307 19.91446 16 ft 27 kts 169°
2026-05-07 10:04 39.59177 19.91445 18 ft 11 kts 183°
2026-05-07 10:05 39.59162 19.91481 16 ft 1 kts 37°
2026-05-07 10:05 39.59170 19.91478 16 ft 1 kts 349°
2026-05-07 10:05 39.59172 19.91477 17 ft 0 kts 349°
2026-05-07 10:06 39.59184 19.91474 18 ft 15 kts 349°
2026-05-07 10:06 39.59541 19.91383 17 ft 88 kts 349°
2026-05-07 10:06 39.60360 19.91172 19 ft 149 kts 348°
2026-05-07 10:06 39.61469 19.90883 436 ft 165 kts 349°
2026-05-07 10:07 39.62609 19.90583 1135 ft 172 kts 349°
2026-05-07 10:07 39.63744 19.89846 1508 ft 201 kts 314°
2026-05-07 10:07 39.64614 19.88334 1759 ft 227 kts 306°
2026-05-07 10:07 39.65561 19.86597 2076 ft 242 kts 306°
2026-05-07 10:08 39.66340 19.85185 2496 ft 247 kts 306°
2026-05-07 10:08 39.67361 19.83365 3180 ft 250 kts 306°
2026-05-07 10:08 39.68395 19.81550 3877 ft 251 kts 307°
2026-05-07 10:08 39.69463 19.79704 4407 ft 265 kts 306°
2026-05-07 10:09 39.70597 19.77761 5073 ft 273 kts 306°
2026-05-07 10:09 39.71753 19.75792 5901 ft 275 kts 305°
2026-05-07 10:09 39.72921 19.73812 6729 ft 276 kts 304°
2026-05-07 10:09 39.74090 19.71835 7518 ft 277 kts 304°
2026-05-07 10:10 39.75275 19.69832 8241 ft 281 kts 303°
2026-05-07 10:10 39.76472 19.67811 9006 ft 284 kts 303°
2026-05-07 10:10 39.77683 19.65765 9775 ft 287 kts 303°
2026-05-07 10:10 39.78891 19.63727 10464 ft 291 kts 303°
2026-05-07 10:11 39.80172 19.61556 10669 ft 314 kts 303°
2026-05-07 10:11 39.81548 19.59225 10863 ft 335 kts 303°
2026-05-07 10:11 39.82991 19.56787 11346 ft 344 kts 303°
2026-05-07 10:11 39.84459 19.54309 12063 ft 346 kts 303°
2026-05-07 10:12 39.85992 19.51885 12837 ft 348 kts 308°
2026-05-07 10:12 39.87662 19.49582 13626 ft 351 kts 309°
2026-05-07 10:12 39.89386 19.47307 14341 ft 354 kts 310°
2026-05-07 10:12 39.91137 19.45014 14973 ft 359 kts 310°
2026-05-07 10:13 39.92885 19.42713 15665 ft 361 kts 310°
2026-05-07 10:13 39.94658 19.40361 16333 ft 365 kts 310°
2026-05-07 10:13 39.96442 19.37979 16974 ft 369 kts 310°
2026-05-07 10:13 39.98242 19.35566 17614 ft 373 kts 310°
2026-05-07 10:14 40.00034 19.33156 18249 ft 377 kts 310°
2026-05-07 10:14 40.01869 19.30683 18823 ft 381 kts 310°
2026-05-07 10:14 40.03717 19.28190 19401 ft 384 kts 310°
2026-05-07 10:14 40.05579 19.25676 19978 ft 386 kts 310°
2026-05-07 10:15 40.07454 19.23142 20541 ft 389 kts 310°
2026-05-07 10:15 40.09347 19.20580 21092 ft 393 kts 310°
2026-05-07 10:15 40.11248 19.18006 21630 ft 396 kts 310°
2026-05-07 10:15 40.13170 19.15401 22157 ft 399 kts 310°
2026-05-07 10:16 40.15105 19.12777 22678 ft 402 kts 310°
2026-05-07 10:16 40.17058 19.10125 23130 ft 408 kts 310°
2026-05-07 10:16 40.19039 19.07434 23573 ft 412 kts 310°
2026-05-07 10:16 40.21006 19.04759 24027 ft 414 kts 310°
2026-05-07 10:17 40.23012 19.02044 24485 ft 417 kts 312°
2026-05-07 10:17 40.25241 18.99577 24900 ft 423 kts 321°
2026-05-07 10:17 40.27792 18.97592 25308 ft 430 kts 328°
2026-05-07 10:17 40.30462 18.95792 25717 ft 432 kts 329°
2026-05-07 10:18 40.33155 18.94008 26112 ft 435 kts 329°
2026-05-07 10:18 40.35867 18.92211 26487 ft 438 kts 329°
2026-05-07 10:18 40.38585 18.90397 26881 ft 440 kts 329°
2026-05-07 10:18 40.41318 18.88558 27255 ft 442 kts 329°
2026-05-07 10:19 40.44064 18.86697 27566 ft 447 kts 329°
2026-05-07 10:19 40.46831 18.84813 27889 ft 450 kts 329°
2026-05-07 10:19 40.49617 18.82911 28270 ft 451 kts 329°
2026-05-07 10:19 40.52407 18.81004 28645 ft 453 kts 329°
2026-05-07 10:20 40.55209 18.79085 28984 ft 455 kts 329°
2026-05-07 10:20 40.58027 18.77154 29297 ft 459 kts 329°
2026-05-07 10:20 40.60877 18.75197 29384 ft 466 kts 329°
2026-05-07 10:20 40.63769 18.73211 29693 ft 468 kts 329°
2026-05-07 10:21 40.66618 18.71254 30088 ft 469 kts 329°
2026-05-07 10:21 40.69515 18.69263 30344 ft 471 kts 329°
2026-05-07 10:21 40.72428 18.67259 30615 ft 472 kts 329°
2026-05-07 10:21 40.75339 18.65255 30993 ft 471 kts 329°
2026-05-07 10:22 40.78232 18.63261 31442 ft 468 kts 328°
2026-05-07 10:22 40.81111 18.61275 31868 ft 465 kts 328°
2026-05-07 10:22 40.83977 18.59295 32100 ft 468 kts 328°
2026-05-07 10:23 40.89783 18.55273 32094 ft 471 kts 328°
2026-05-07 10:23 40.95553 18.51274 32086 ft 467 kts 328°
2026-05-07 10:24 41.01299 18.47281 32087 ft 466 kts 328°
2026-05-07 10:24 41.07037 18.43285 32090 ft 466 kts 328°
2026-05-07 10:25 41.12779 18.39278 32105 ft 467 kts 328°
2026-05-07 10:25 41.18510 18.35271 32095 ft 470 kts 328°
2026-05-07 10:26 41.24312 18.31207 32096 ft 472 kts 328°
2026-05-07 10:26 41.30130 18.27123 32089 ft 474 kts 328°
2026-05-07 10:27 41.35970 18.23016 32093 ft 475 kts 328°
2026-05-07 10:27 41.41825 18.18889 32089 ft 476 kts 328°
2026-05-07 10:28 41.47680 18.14756 32089 ft 476 kts 328°
2026-05-07 10:28 41.53416 18.10395 32091 ft 472 kts 323°
2026-05-07 10:29 41.58846 18.05512 32101 ft 470 kts 321°
2026-05-07 10:29 41.64246 18.00591 32082 ft 469 kts 321°
2026-05-07 10:30 41.72376 17.93333 32092 ft 468 kts 322°
2026-05-07 10:30 41.77799 17.88510 32092 ft 467 kts 322°
2026-05-07 10:31 41.83200 17.83690 32097 ft 466 kts 321°
2026-05-07 10:31 41.88586 17.78922 32085 ft 468 kts 325°
2026-05-07 10:32 41.94713 17.75755 32093 ft 479 kts 344°
2026-05-07 10:32 42.01379 17.74880 32092 ft 483 kts 354°
2026-05-07 10:33 42.08079 17.74426 32585 ft 479 kts 352°
2026-05-07 10:33 42.11402 17.74108 32966 ft 477 kts 351°
2026-05-07 10:33 42.14700 17.73747 33384 ft 475 kts 351°
2026-05-07 10:34 42.17983 17.73371 33760 ft 473 kts 351°
2026-05-07 10:34 42.20197 17.73116 34000 ft 472 kts 351°
2026-05-07 10:34 42.23431 17.72748 34318 ft 471 kts 351°
2026-05-07 10:34 42.26692 17.72382 34624 ft 470 kts 352°
2026-05-07 10:35 42.29952 17.72023 34896 ft 470 kts 352°
2026-05-07 10:35 42.33203 17.71669 35160 ft 469 kts 352°
2026-05-07 10:35 42.36500 17.71312 35451 ft 468 kts 352°
2026-05-07 10:35 42.39744 17.70962 35730 ft 467 kts 352°
2026-05-07 10:36 42.42941 17.70618 35988 ft 467 kts 352°
2026-05-07 10:36 42.46178 17.70268 36247 ft 466 kts 352°
2026-05-07 10:36 42.49418 17.69917 36467 ft 466 kts 352°
2026-05-07 10:36 42.52654 17.69566 36716 ft 466 kts 352°
2026-05-07 10:37 42.55884 17.69216 36986 ft 465 kts 352°
2026-05-07 10:37 42.59109 17.68865 37233 ft 464 kts 352°
2026-05-07 10:37 42.62336 17.68514 37440 ft 464 kts 352°
2026-05-07 10:37 42.65553 17.68163 37657 ft 465 kts 352°
2026-05-07 10:38 42.68779 17.67811 37819 ft 466 kts 352°
2026-05-07 10:38 42.72014 17.67458 38025 ft 466 kts 352°
2026-05-07 10:38 42.78494 17.66748 38086 ft 468 kts 352°
2026-05-07 10:39 42.84956 17.66042 38102 ft 464 kts 352°
2026-05-07 10:39 42.91378 17.65339 38091 ft 461 kts 352°
2026-05-07 10:40 42.97709 17.64643 38095 ft 458 kts 352°
2026-05-07 10:40 43.04056 17.63942 38104 ft 457 kts 352°
2026-05-07 10:41 43.10445 17.63233 38114 ft 465 kts 352°
2026-05-07 10:41 43.16950 17.62510 38108 ft 472 kts 352°
2026-05-07 10:42 43.23539 17.61779 38114 ft 477 kts 352°
2026-05-07 10:42 43.30184 17.61042 38117 ft 480 kts 352°
2026-05-07 10:43 43.36847 17.60301 38113 ft 481 kts 352°
2026-05-07 10:43 43.43522 17.59557 38105 ft 481 kts 352°
2026-05-07 10:44 43.50177 17.58813 38102 ft 479 kts 352°
2026-05-07 10:44 43.56765 17.58075 38114 ft 477 kts 352°
2026-05-07 10:45 43.63374 17.57332 38102 ft 476 kts 351°
2026-05-07 10:45 43.69971 17.56588 38106 ft 475 kts 352°
2026-05-07 10:46 43.76550 17.55845 38097 ft 474 kts 351°
2026-05-07 10:46 43.83117 17.55102 38110 ft 473 kts 352°
2026-05-07 10:47 43.89690 17.54356 38107 ft 474 kts 352°
2026-05-07 10:47 43.96264 17.53610 38088 ft 474 kts 351°
2026-05-07 10:48 44.02835 17.52862 38094 ft 474 kts 351°
2026-05-07 10:48 44.09422 17.52109 38083 ft 475 kts 351°
2026-05-07 10:49 44.16016 17.51354 38074 ft 475 kts 351°
2026-05-07 10:49 44.22605 17.50598 38071 ft 475 kts 351°
2026-05-07 10:50 44.29202 17.49841 38061 ft 475 kts 351°
2026-05-07 10:50 44.35750 17.49086 38060 ft 475 kts 351°
2026-05-07 10:51 44.42349 17.48324 38083 ft 476 kts 351°
2026-05-07 10:51 44.48970 17.47557 38057 ft 477 kts 351°
2026-05-07 10:52 44.55601 17.46788 38060 ft 478 kts 351°
2026-05-07 10:52 44.62237 17.46017 38070 ft 479 kts 351°
2026-05-07 10:53 44.68886 17.45242 38046 ft 480 kts 351°
2026-05-07 10:53 44.75500 17.44470 38041 ft 480 kts 351°
2026-05-07 10:54 44.82159 17.43691 38051 ft 480 kts 351°
2026-05-07 10:54 44.88827 17.42909 38049 ft 481 kts 351°
2026-05-07 10:55 44.95508 17.42123 38068 ft 481 kts 351°
2026-05-07 10:55 45.02193 17.41335 38046 ft 482 kts 351°
2026-05-07 10:56 45.08882 17.40545 38059 ft 483 kts 351°
2026-05-07 10:56 45.15593 17.39749 38046 ft 484 kts 351°
2026-05-07 10:57 45.22258 17.38959 38043 ft 484 kts 351°
2026-05-07 10:57 45.28985 17.38158 38056 ft 485 kts 351°
2026-05-07 10:58 45.35724 17.37354 38038 ft 486 kts 351°
2026-05-07 10:58 45.42459 17.36550 38037 ft 486 kts 351°
2026-05-07 10:59 45.49190 17.35743 38072 ft 485 kts 351°
2026-05-07 10:59 45.55930 17.34933 38053 ft 486 kts 351°
2026-05-07 11:00 45.62668 17.34123 38045 ft 486 kts 351°
2026-05-07 11:00 45.69360 17.33314 38047 ft 486 kts 351°
2026-05-07 11:01 45.76095 17.32499 38048 ft 486 kts 351°
2026-05-07 11:01 45.82832 17.31682 38046 ft 486 kts 351°
2026-05-07 11:02 45.89575 17.30862 38042 ft 486 kts 351°
2026-05-07 11:02 45.96324 17.30073 38036 ft 488 kts 354°
2026-05-07 11:03 46.03111 17.31139 38035 ft 496 kts 13°
2026-05-07 11:03 46.09749 17.33968 38038 ft 497 kts 15°
2026-05-07 11:04 46.16365 17.36890 38070 ft 498 kts 14°
2026-05-07 11:04 46.23006 17.39754 38038 ft 498 kts 13°
2026-05-07 11:05 46.29661 17.42576 38029 ft 498 kts 13°
2026-05-07 11:05 46.36316 17.45391 38030 ft 498 kts 13°
2026-05-07 11:06 46.42963 17.48212 38023 ft 498 kts 13°
2026-05-07 11:06 46.49612 17.51044 38026 ft 498 kts 14°
2026-05-07 11:07 46.56270 17.53890 38035 ft 499 kts 14°
2026-05-07 11:07 46.62933 17.56744 38013 ft 499 kts 14°
2026-05-07 11:08 46.69593 17.59605 38020 ft 499 kts 14°
2026-05-07 11:08 46.76199 17.62450 38031 ft 498 kts 14°
2026-05-07 11:09 46.82855 17.65323 38009 ft 498 kts 14°
2026-05-07 11:09 46.89506 17.68201 38011 ft 498 kts 14°
2026-05-07 11:10 46.96153 17.71086 38008 ft 498 kts 14°
2026-05-07 11:10 47.02802 17.73979 38006 ft 498 kts 14°
2026-05-07 11:11 47.09449 17.76878 37995 ft 498 kts 14°
2026-05-07 11:11 47.16097 17.79786 38000 ft 498 kts 15°
2026-05-07 11:12 47.22748 17.82702 37988 ft 499 kts 15°
2026-05-07 11:12 47.29360 17.85608 37993 ft 499 kts 15°
2026-05-07 11:13 47.36047 17.88557 37984 ft 498 kts 15°
2026-05-07 11:13 47.42649 17.91475 37983 ft 498 kts 15°
2026-05-07 11:14 47.49299 17.94421 37983 ft 498 kts 15°
2026-05-07 11:14 47.55933 17.97369 37981 ft 498 kts 15°
2026-05-07 11:15 47.62576 18.00328 37983 ft 498 kts 15°
2026-05-07 11:15 47.69211 18.03293 37989 ft 498 kts 15°
2026-05-07 11:16 47.75857 18.06234 37979 ft 497 kts 12°
2026-05-07 11:16 47.82648 18.08079 37977 ft 495 kts
2026-05-07 11:17 47.89430 18.09469 37986 ft 495 kts
2026-05-07 11:17 47.96252 18.10912 37977 ft 495 kts
2026-05-07 11:18 48.03069 18.12447 37988 ft 496 kts
2026-05-07 11:18 48.09882 18.14021 37984 ft 495 kts
2026-05-07 11:19 48.16704 18.15605 37975 ft 496 kts
2026-05-07 11:19 48.22369 18.16919 37966 ft 496 kts
2026-05-07 11:20 48.29195 18.18505 37972 ft 496 kts
2026-05-07 11:20 48.36013 18.20091 37964 ft 496 kts
2026-05-07 11:21 48.42838 18.21684 37969 ft 496 kts
2026-05-07 11:21 48.49667 18.23282 37963 ft 496 kts
2026-05-07 11:22 48.56484 18.24882 37979 ft 496 kts
2026-05-07 11:22 48.63258 18.26476 37974 ft 496 kts
2026-05-07 11:23 48.70078 18.28086 37973 ft 496 kts
2026-05-07 11:23 48.76893 18.29698 37971 ft 496 kts
2026-05-07 11:24 48.83720 18.31318 37956 ft 496 kts
2026-05-07 11:24 48.90537 18.32940 37949 ft 495 kts
2026-05-07 11:25 48.97342 18.34564 37976 ft 495 kts
2026-05-07 11:25 49.04108 18.36182 37969 ft 495 kts
2026-05-07 11:26 49.10914 18.37815 37959 ft 496 kts
2026-05-07 11:26 49.17731 18.39455 37965 ft 495 kts
2026-05-07 11:27 49.24541 18.41099 37961 ft 496 kts
2026-05-07 11:27 49.31362 18.42748 37961 ft 496 kts
2026-05-07 11:28 49.38198 18.43582 37959 ft 490 kts 351°
2026-05-07 11:28 49.44718 18.41089 37951 ft 480 kts 331°
2026-05-07 11:29 49.50716 18.36639 37945 ft 478 kts 329°
2026-05-07 11:29 49.56691 18.32127 37939 ft 478 kts 330°
2026-05-07 11:30 49.62692 18.27682 37949 ft 479 kts 330°
2026-05-07 11:30 49.68677 18.23283 37945 ft 479 kts 330°
2026-05-07 11:31 49.74707 18.18843 37938 ft 480 kts 330°
2026-05-07 11:31 49.80729 18.14391 37940 ft 479 kts 330°
2026-05-07 11:32 49.89753 18.07694 37936 ft 479 kts 330°
2026-05-07 11:33 49.95838 18.03465 37922 ft 482 kts 336°
2026-05-07 11:33 50.02184 18.00038 37930 ft 482 kts 337°
2026-05-07 11:34 50.08499 17.96484 37923 ft 482 kts 336°
2026-05-07 11:34 50.14774 17.92829 37920 ft 481 kts 335°
2026-05-07 11:35 50.21049 17.89174 37925 ft 481 kts 335°
2026-05-07 11:35 50.27324 17.85526 37924 ft 481 kts 335°
2026-05-07 11:36 50.33557 17.81896 37923 ft 481 kts 335°
2026-05-07 11:36 50.39837 17.78226 37919 ft 482 kts 335°
2026-05-07 11:37 50.46106 17.74544 37922 ft 481 kts 335°
2026-05-07 11:37 50.52372 17.70852 37917 ft 481 kts 335°
2026-05-07 11:38 50.58637 17.67151 37917 ft 481 kts 335°
2026-05-07 11:38 50.64899 17.63441 37923 ft 481 kts 335°
2026-05-07 11:39 50.71162 17.59720 37928 ft 481 kts 335°
2026-05-07 11:39 50.77418 17.55995 37941 ft 478 kts 335°
2026-05-07 11:39 50.80482 17.54201 37874 ft 459 kts 335°
2026-05-07 11:40 50.83489 17.52452 36469 ft 469 kts 335°
2026-05-07 11:40 50.86513 17.50680 35333 ft 476 kts 334°
2026-05-07 11:40 50.89635 17.48822 34144 ft 484 kts 333°
2026-05-07 11:40 50.92771 17.46936 33014 ft 486 kts 333°
2026-05-07 11:41 50.95955 17.45016 31907 ft 487 kts 333°
2026-05-07 11:41 50.99132 17.43100 30845 ft 488 kts 334°
2026-05-07 11:41 51.02300 17.41190 29798 ft 488 kts 334°
2026-05-07 11:41 51.05471 17.39278 28639 ft 486 kts 334°
2026-05-07 11:42 51.08631 17.37370 27518 ft 484 kts 334°
2026-05-07 11:42 51.11767 17.35474 26433 ft 481 kts 334°
2026-05-07 11:42 51.14881 17.33588 25389 ft 477 kts 334°
2026-05-07 11:42 51.17971 17.31714 24415 ft 473 kts 334°
2026-05-07 11:43 51.21028 17.29860 23429 ft 468 kts 334°
2026-05-07 11:43 51.24064 17.28019 22286 ft 463 kts 334°
2026-05-07 11:43 51.27061 17.26197 21187 ft 457 kts 334°
2026-05-07 11:43 51.30017 17.24398 20131 ft 451 kts 335°
2026-05-07 11:44 51.32923 17.22626 19117 ft 444 kts 335°
2026-05-07 11:44 51.35786 17.20877 18104 ft 437 kts 335°
2026-05-07 11:44 51.38606 17.19151 16988 ft 430 kts 336°
2026-05-07 11:44 51.41387 17.17447 15915 ft 424 kts 336°
2026-05-07 11:45 51.44085 17.15792 14891 ft 418 kts 336°
2026-05-07 11:45 51.46783 17.14137 13886 ft 412 kts 336°
2026-05-07 11:45 51.49531 17.12849 12791 ft 411 kts 348°
2026-05-07 11:45 51.52319 17.12556 12477 ft 394 kts
2026-05-07 11:46 51.55022 17.12853 12170 ft 384 kts
2026-05-07 11:46 51.57658 17.12830 11867 ft 373 kts 354°
2026-05-07 11:46 51.60210 17.12549 11612 ft 363 kts 353°
2026-05-07 11:46 51.62696 17.12241 11361 ft 354 kts 353°
2026-05-07 11:47 51.65131 17.11941 11092 ft 347 kts 353°
2026-05-07 11:47 51.67520 17.11658 10824 ft 341 kts 353°
2026-05-07 11:47 51.69866 17.11391 10571 ft 336 kts 353°
2026-05-07 11:47 51.72180 17.11136 10293 ft 331 kts 353°
2026-05-07 11:48 51.74467 17.10890 10031 ft 327 kts 353°
2026-05-07 11:48 51.76721 17.10649 9754 ft 323 kts 353°
2026-05-07 11:48 51.78950 17.10414 9456 ft 319 kts 353°
2026-05-07 11:48 51.81155 17.10181 9169 ft 316 kts 353°
2026-05-07 11:49 51.83341 17.09951 8883 ft 314 kts 353°
2026-05-07 11:49 51.85481 17.09725 8604 ft 312 kts 353°
2026-05-07 11:49 51.87638 17.09498 8325 ft 310 kts 353°
2026-05-07 11:49 51.89793 17.09271 8045 ft 309 kts 353°
2026-05-07 11:50 51.91935 17.09045 7763 ft 308 kts 353°
2026-05-07 11:50 51.94069 17.08820 7490 ft 306 kts 353°
2026-05-07 11:50 51.96192 17.08596 7217 ft 305 kts 353°
2026-05-07 11:50 51.98296 17.08374 6979 ft 301 kts 353°
2026-05-07 11:51 52.00369 17.08156 6745 ft 296 kts 353°
2026-05-07 11:51 52.02410 17.07941 6516 ft 292 kts 353°
2026-05-07 11:51 52.04422 17.07728 6269 ft 288 kts 353°
2026-05-07 11:51 52.06408 17.07517 6033 ft 284 kts 354°
2026-05-07 11:52 52.08367 17.07309 5797 ft 280 kts 354°
2026-05-07 11:52 52.10303 17.07104 5548 ft 276 kts 354°
2026-05-07 11:52 52.12179 17.06904 5338 ft 271 kts 354°
2026-05-07 11:52 52.14034 17.06707 5100 ft 264 kts 355°
2026-05-07 11:53 52.15841 17.06515 4915 ft 257 kts 355°
2026-05-07 11:53 52.17606 17.06327 4703 ft 251 kts 355°
2026-05-07 11:53 52.19341 17.06143 4496 ft 247 kts 354°
2026-05-07 11:53 52.21045 17.05964 4311 ft 245 kts 354°
2026-05-07 11:54 52.22742 17.05761 4140 ft 242 kts 355°
2026-05-07 11:54 52.24337 17.05596 3957 ft 237 kts 355°
2026-05-07 11:54 52.26041 17.05404 3729 ft 233 kts 356°
2026-05-07 11:54 52.27612 17.05319 3571 ft 225 kts 358°
2026-05-07 11:55 52.29091 17.05176 3408 ft 217 kts 355°
2026-05-07 11:55 52.30492 17.04986 3273 ft 207 kts 356°
2026-05-07 11:55 52.31893 17.04818 3151 ft 196 kts 356°
2026-05-07 11:55 52.33214 17.04668 2981 ft 187 kts 357°
2026-05-07 11:56 52.34485 17.04527 2850 ft 176 kts 358°
2026-05-07 11:56 52.35661 17.04398 2809 ft 167 kts 358°
2026-05-07 11:56 52.36833 17.04267 2826 ft 170 kts 355°
2026-05-07 11:56 52.37893 17.03458 2759 ft 176 kts 311°
2026-05-07 11:57 52.38425 17.01621 2574 ft 184 kts 292°
2026-05-07 11:57 52.38838 16.99679 2321 ft 175 kts 290°
2026-05-07 11:57 52.39195 16.97846 2074 ft 164 kts 290°
2026-05-07 11:57 52.39517 16.96153 1868 ft 149 kts 291°
2026-05-07 11:58 52.39815 16.94595 1679 ft 139 kts 291°
2026-05-07 11:58 52.40093 16.93141 1484 ft 137 kts 291°
2026-05-07 11:58 52.40378 16.91652 1299 ft 137 kts 290°
2026-05-07 11:58 52.40663 16.90163 1114 ft 138 kts 291°
2026-05-07 11:59 52.40950 16.88657 912 ft 139 kts 289°
2026-05-07 11:59 52.41226 16.87181 727 ft 135 kts 289°
2026-05-07 11:59 52.41517 16.85671 519 ft 137 kts 290°
2026-05-07 11:59 52.41800 16.84192 337 ft 136 kts 291°
2026-05-07 12:00 52.42066 16.82820 286 ft 111 kts 288°
2026-05-07 12:00 52.42253 16.81862 287 ft 55 kts 287°
2026-05-07 12:00 52.42293 16.81380 287 ft 35 kts 265°
2026-05-07 12:00 52.42245 16.81142 289 ft 7 kts 198°
2026-05-07 12:01 52.42211 16.81192 287 ft 7 kts 115°
2026-05-07 12:01 52.42184 16.81327 290 ft 20 kts 107°
2026-05-07 12:01 52.42143 16.81545 291 ft 20 kts 107°
2026-05-07 12:01 52.42103 16.81756 287 ft 19 kts 108°
2026-05-07 12:02 52.42062 16.81958 287 ft 18 kts 108°
2026-05-07 12:02 52.42024 16.82155 291 ft 18 kts 107°
2026-05-07 12:02 52.41988 16.82345 287 ft 17 kts 108°
2026-05-07 12:02 52.41953 16.82526 292 ft 17 kts 107°
2026-05-07 12:03 52.41919 16.82702 287 ft 16 kts 107°
2026-05-07 12:03 52.41886 16.82872 287 ft 15 kts 110°
2026-05-07 12:03 52.41833 16.82907 287 ft 8 kts 198°
2026-05-07 12:03 52.41770 16.82876 289 ft 11 kts 196°
2026-05-07 12:04 52.41695 16.82847 287 ft 11 kts 173°
2026-05-07 12:04 52.41653 16.82938 291 ft 11 kts 102°
2026-05-07 12:04 52.41637 16.83055 290 ft 10 kts 103°
2026-05-07 12:04 52.41602 16.83139 287 ft 9 kts 181°
2026-05-07 12:05 52.41558 16.83124 287 ft 1 kts 193°
2026-05-07 12:05 52.41556 16.83123 287 ft 0 kts 193°